Вернуться в каталог

STARLINK-36829

АктивенСвязьVLEO
NORAD 67957·PAYLOAD·🇺🇸 United States

Запущен Feb 24, 2026 с Vandenberg Space Force Base

Loading…

Ближайшие Пролёты (ближайшие 24 часа)

TLE

СвежийSource: CelesTrak SupGP

Эпоха: Sep 14, 2026, 21:20 UTC

1 67957C 26037AB  26257.88937500  .00014164  00000+0  51303-3 0  2571
2 67957  42.9994 202.2773 0001129 259.7485 175.4198 15.27572049    17

Отслеживайте STARLINK-36829 в реальном времени с AllMySat

Download on the App Store